El Paso, TX

11:21 AM MST on December 07, 2016 (GMT -0700)
El Paso International

Weather History for KELP - March, 2014

Change the Weather History Date:

Sunday, March 30, 2014

  Actual Average Record
Temperature  
Mean Temperature 69 °F 60 °F  
Max Temperature 85 °F 74 °F 86 °F (2010)
Min Temperature 53 °F 46 °F 16 °F (1987)
Degree Days  
Heating Degree Days 0 6  
Month to date heating degree days 177 265  
Since 1 July heating degree days 1965 2368  
Cooling Degree Days 4 1  
Month to date cooling degree days 15 5  
Year to date cooling degree days 22 5  
Growing Degree Days 18 (Base 50)    
Moisture  
Dew Point 21 °F    
Average Humidity 20    
Maximum Humidity 32    
Minimum Humidity 7    
Precipitation  
Precipitation 0.00 in 0.00 in 0.17 in (1964)
Month to date precipitation 0.18 0.25  
Year to date precipitation 0.18 1.11  
Snow  
Snow 0.00 in - - ()
Month to date snowfall 0.0  
Since 1 July snowfall T  
Snow Depth 0.00 in    
Sea Level Pressure  
Sea Level Pressure 29.78 in    
Wind  
Wind Speed 12 mph (SW)    
Max Wind Speed 31 mph    
Max Gust Speed 39 mph    
Visibility 10 miles    
Events      
T = Trace of Precipitation, MM = Missing Value Source: NWS Daily Summary

Daily Weather History Graph

Daily Weather History Graph

Search for Another Location

Airport or City:

Trip Planner

Search our weather history database for the weather conditions in past years. The results will help you decide how hot, cold, wet, or windy it might be!

Date:

Astronomy

Mar. 30, 2014 Rise Set
Actual Time 6:56 AM MDT 7:23 PM MDT
Civil Twilight 6:31 AM MDT 7:48 PM MDT
Nautical Twilight 6:03 AM MDT 8:17 PM MDT
Astronomical Twilight 5:34 AM MDT 8:46 PM MDT
Moon 6:44 AM MDT (3/30) 7:37 PM MDT (3/30)
Length of Visible Light 13h 16m
Length of Day
12h 27m
Waning Crescent, 0% of the Moon is Illuminated
Mar 30
Waning Crescent
Mar 30
New
Apr 7
First Quarter
Apr 15
Full
Apr 22
Last Quarter

Hourly Weather History & Observations

Time (MDT) Temp. Dew Point Humidity Pressure Visibility Wind Dir Wind Speed Gust Speed Precip Events Conditions
12:51 AM 63.0 °F 28.0 °F 27% 29.91 in 10.0 mi Calm Calm - N/A   Scattered Clouds
1:51 AM 60.1 °F 28.0 °F 30% 29.90 in 10.0 mi ESE 3.5 mph - N/A   Partly Cloudy
2:51 AM 59.0 °F 27.0 °F 29% 29.88 in 10.0 mi Calm Calm - N/A   Scattered Clouds
3:51 AM 59.0 °F 27.0 °F 29% 29.85 in 10.0 mi Calm Calm - N/A   Partly Cloudy
4:51 AM 57.9 °F 27.0 °F 31% 29.84 in 10.0 mi Calm Calm - N/A   Partly Cloudy
5:51 AM 57.9 °F 25.0 °F 28% 29.84 in 10.0 mi Calm Calm - N/A   Partly Cloudy
6:51 AM 55.9 °F 25.0 °F 30% 29.86 in 10.0 mi Calm Calm - N/A   Partly Cloudy
7:51 AM 55.9 °F 26.1 °F 32% 29.88 in 10.0 mi South 3.5 mph - N/A   Scattered Clouds
8:51 AM 60.1 °F 30.0 °F 32% 29.87 in 10.0 mi SSE 8.1 mph - N/A   Mostly Cloudy
9:51 AM 64.9 °F 30.0 °F 27% 29.88 in 10.0 mi SSE 9.2 mph - N/A   Overcast
10:51 AM 69.1 °F 27.0 °F 21% 29.86 in 10.0 mi SSE 8.1 mph - N/A   Mostly Cloudy
11:51 AM 73.9 °F 23.0 °F 15% 29.83 in 10.0 mi South 11.5 mph - N/A   Mostly Cloudy
12:51 PM 80.1 °F 18.0 °F 10% 29.78 in 10.0 mi SSW 10.4 mph - N/A   Mostly Cloudy
1:51 PM 82.0 °F 19.0 °F 10% 29.74 in 10.0 mi WSW 16.1 mph 20.7 mph N/A   Mostly Cloudy
2:51 PM 84.0 °F 14.0 °F 7% 29.70 in 10.0 mi WSW 23.0 mph 28.8 mph N/A   Mostly Cloudy
3:51 PM 84.0 °F 16.0 °F 8% 29.68 in 10.0 mi SW 18.4 mph 29.9 mph N/A   Mostly Cloudy
4:51 PM 84.0 °F 16.0 °F 8% 29.65 in 10.0 mi SW 18.4 mph 26.5 mph N/A   Mostly Cloudy
5:51 PM 84.0 °F 16.0 °F 8% 29.62 in 10.0 mi WSW 19.6 mph 27.6 mph N/A   Mostly Cloudy
6:51 PM 82.0 °F 15.1 °F 8% 29.63 in 10.0 mi West 23.0 mph 29.9 mph N/A   Mostly Cloudy
7:51 PM 80.1 °F 16.0 °F 9% 29.64 in 10.0 mi West 25.3 mph 35.7 mph N/A   Mostly Cloudy
8:51 PM 75.0 °F 14.0 °F 10% 29.68 in 10.0 mi WNW 27.6 mph 35.7 mph N/A   Mostly Cloudy
9:51 PM 73.0 °F 14.0 °F 11% 29.71 in 10.0 mi WNW 21.9 mph 28.8 mph N/A   Mostly Cloudy
10:51 PM 72.0 °F 15.1 °F 11% 29.72 in 10.0 mi WNW 19.6 mph 26.5 mph N/A   Mostly Cloudy
11:51 PM 70.0 °F 16.0 °F 13% 29.73 in 10.0 mi WNW 18.4 mph 27.6 mph N/A   Scattered Clouds